Location: M?digepalle
(16.1753°N, 80.3496°E)
Time: 07:51:58
(UTC+00:00)

Cosmos 1980 Rocket - Pass Details

Date: 29 October 2020
Orbit: 831 x 848 km, 71.0° (Epoch: 27 November)

Event Time Altitude Azimuth Distance (km) Brightness Sun altitude
Rises 23:07:08 0° 3° (N) 3,368 5.3 -21.5°
Reaches altitude 10° 23:10:02 10° 17° (NNE) 2,435 4.7 -20.8°
Maximum altitude 23:14:28 24° 70° (ENE) 1,662 4.4 -19.8°
Drops below altitude 10° 23:18:53 10° 122° (ESE) 2,440 5.6 -18.7°
Sets 23:21:46 0° 136° (SE) 3,376 6.2 -18.1°
